Time,TemperatureF,DewpointF,PressureIn,WindDirection,WindDirectionDegrees,WindSpeedMPH,WindSpeedGustMPH,Humidity,HourlyPrecipIn,Conditions,Clouds,dailyrainin,SoftwareType,DateUTC
2013-05-12 00:00:00,36.0,31.8,30.34,East,90,0.0,0.0,85,0.00,,,0.00,WUHU21623XXSP,2013-05-12 04:00:00,
2013-05-12 00:01:00,36.0,31.8,30.34,East,90,0.0,0.0,85,0.00,,,0.00,WUHU21623XXSP,2013-05-12 04:01:00,
2013-05-12 00:02:00,36.0,31.8,30.34,East,90,0.0,0.0,85,0.00,,,0.00,WUHU21623XXSP,2013-05-12 04:02:00,
2013-05-12 00:07:00,36.0,31.8,30.34,North,0,0.0,0.0,85,0.00,,,0.00,WUHU21623XXSP,2013-05-12 04:07:00,
2013-05-12 00:12:00,36.0,31.8,30.34,SW,225,0.0,0.0,85,0.00,,,0.00,WUHU21623XXSP,2013-05-12 04:12:00,
2013-05-12 00:17:00,36.0,31.8,30.34,SW,225,0.0,0.0,85,0.00,,,0.00,WUHU21623XXSP,2013-05-12 04:17:00,
2013-05-12 00:22:00,36.1,32.0,30.34,West,270,0.0,0.0,85,0.00,,,0.00,WUHU21623XXSP,2013-05-12 04:22:00,
2013-05-12 00:27:00,36.1,32.0,30.33,WNW,292,0.0,0.0,85,0.00,,,0.00,WUHU21623XXSP,2013-05-12 04:27:00,
2013-05-12 00:32:00,36.1,32.0,30.33,West,270,0.0,0.0,85,0.00,,,0.00,WUHU21623XXSP,2013-05-12 04:32:00,
2013-05-12 00:37:00,36.3,32.2,30.33,NE,45,0.0,0.0,85,0.00,,,0.00,WUHU21623XXSP,2013-05-12 04:37:00,
2013-05-12 00:42:00,36.1,32.2,30.34,North,0,0.0,0.0,85,0.00,,,0.00,WUHU21623XXSP,2013-05-12 04:42:00,
2013-05-12 00:47:00,36.3,32.2,30.34,East,90,0.0,0.0,85,0.00,,,0.00,WUHU21623XXSP,2013-05-12 04:47:00,
2013-05-12 00:52:00,36.1,32.0,30.34,NNW,337,0.0,0.0,85,0.00,,,0.00,WUHU21623XXSP,2013-05-12 04:52:00,
2013-05-12 00:57:00,36.3,32.2,30.33,NW,315,0.0,0.0,85,0.00,,,0.00,WUHU21623XXSP,2013-05-12 04:57:00,
2013-05-12 01:02:00,36.3,32.2,30.34,South,180,0.0,0.0,85,0.00,,,0.00,WUHU21623XXSP,2013-05-12 05:02:00,
2013-05-12 01:07:00,36.3,32.2,30.34,NNE,22,0.0,0.0,85,0.00,,,0.00,WUHU21623XXSP,2013-05-12 05:07:00,
2013-05-12 01:12:00,36.3,32.2,30.34,WSW,247,0.0,0.0,85,0.00,,,0.00,WUHU21623XXSP,2013-05-12 05:12:00,
2013-05-12 01:17:00,36.3,32.2,30.34,SW,225,0.0,3.6,85,0.00,,,0.00,WUHU21623XXSP,2013-05-12 05:17:00,
2013-05-12 01:22:00,36.3,32.2,30.34,East,90,2.0,3.6,85,0.00,,,0.00,WUHU21623XXSP,2013-05-12 05:22:00,
2013-05-12 01:27:00,36.1,32.0,30.34,NNE,22,0.0,2.0,85,0.00,,,0.00,WUHU21623XXSP,2013-05-12 05:27:00,
2013-05-12 01:32:00,36.1,32.0,30.34,North,0,0.0,2.0,85,0.00,,,0.00,WUHU21623XXSP,2013-05-12 05:32:00,
2013-05-12 01:37:00,36.1,32.0,30.33,ENE,67,0.0,0.0,85,0.00,,,0.00,WUHU21623XXSP,2013-05-12 05:37:00,
2013-05-12 01:42:00,36.1,32.0,30.34,WNW,292,0.0,0.0,85,0.00,,,0.00,WUHU21623XXSP,2013-05-12 05:42:00,
2013-05-12 01:47:00,36.1,32.0,30.33,South,180,0.0,0.0,85,0.00,,,0.00,WUHU21623XXSP,2013-05-12 05:47:00,
2013-05-12 01:52:00,36.1,32.0,30.33,NNE,22,0.0,0.0,85,0.00,,,0.00,WUHU21623XXSP,2013-05-12 05:52:00,
2013-05-12 01:57:00,36.0,31.8,30.34,East,90,0.0,0.0,85,0.00,,,0.00,WUHU21623XXSP,2013-05-12 05:57:00,
2013-05-12 02:02:00,36.0,31.8,30.34,NNW,337,0.0,0.0,85,0.00,,,0.00,WUHU21623XXSP,2013-05-12 06:02:00,
2013-05-12 02:07:00,36.1,32.0,30.33,West,270,0.0,0.0,85,0.00,,,0.00,WUHU21623XXSP,2013-05-12 06:07:00,
2013-05-12 02:12:00,36.3,32.2,30.33,WSW,247,0.0,0.0,85,0.00,,,0.00,WUHU21623XXSP,2013-05-12 06:12:00,
2013-05-12 02:18:00,36.5,32.4,30.33,SSW,202,0.0,0.0,85,0.00,,,0.00,WUHU21623XXSP,2013-05-12 06:18:00,
2013-05-12 02:23:00,36.7,32.5,30.33,SE,135,0.0,0.0,85,0.00,,,0.00,WUHU21623XXSP,2013-05-12 06:23:00,
2013-05-12 02:28:00,36.7,32.3,30.33,South,180,0.0,0.0,84,0.00,,,0.00,WUHU21623XXSP,2013-05-12 06:28:00,
2013-05-12 02:33:00,36.7,32.3,30.33,WSW,247,0.0,0.0,84,0.00,,,0.00,WUHU21623XXSP,2013-05-12 06:33:00,
2013-05-12 02:38:00,36.7,32.3,30.33,SW,225,0.0,0.0,84,0.00,,,0.00,WUHU21623XXSP,2013-05-12 06:38:00,
2013-05-12 02:43:00,36.7,32.3,30.33,NNE,22,0.0,0.0,84,0.00,,,0.00,WUHU21623XXSP,2013-05-12 06:43:00,
2013-05-12 02:48:00,36.5,32.1,30.33,ESE,112,0.0,0.0,84,0.00,,,0.00,WUHU21623XXSP,2013-05-12 06:48:00,
2013-05-12 02:53:00,36.5,32.1,30.33,NE,45,0.0,0.0,84,0.00,,,0.00,WUHU21623XXSP,2013-05-12 06:53:00,
2013-05-12 02:58:00,36.3,31.9,30.33,SSE,157,0.0,0.0,84,0.00,,,0.00,WUHU21623XXSP,2013-05-12 06:58:00,
2013-05-12 03:03:00,36.3,31.9,30.33,SSE,157,0.0,0.0,84,0.00,,,0.00,WUHU21623XXSP,2013-05-12 07:03:00,
2013-05-12 03:08:00,36.3,31.6,30.33,East,90,0.0,0.0,83,0.00,,,0.00,WUHU21623XXSP,2013-05-12 07:08:00,
2013-05-12 03:13:00,36.3,31.6,30.32,WSW,247,0.0,0.0,83,0.00,,,0.00,WUHU21623XXSP,2013-05-12 07:13:00,
2013-05-12 03:18:00,36.3,31.3,30.33,ESE,112,0.0,0.0,82,0.00,,,0.00,WUHU21623XXSP,2013-05-12 07:18:00,
2013-05-12 03:23:00,36.3,31.3,30.33,SSE,157,0.0,0.0,82,0.00,,,0.00,WUHU21623XXSP,2013-05-12 07:23:00,
2013-05-12 03:28:00,36.3,31.3,30.32,ESE,112,0.0,3.1,82,0.00,,,0.00,WUHU21623XXSP,2013-05-12 07:28:00,
2013-05-12 03:33:00,36.3,31.0,30.33,NNE,22,0.0,3.1,81,0.00,,,0.00,WUHU21623XXSP,2013-05-12 07:33:00,
2013-05-12 03:38:00,36.3,31.0,30.33,SSW,202,0.0,0.0,81,0.00,,,0.00,WUHU21623XXSP,2013-05-12 07:38:00,
2013-05-12 03:43:00,36.3,30.7,30.32,SSW,202,1.6,5.4,80,0.00,,,0.00,WUHU21623XXSP,2013-05-12 07:43:00,
2013-05-12 03:48:00,36.3,30.4,30.33,ESE,112,0.0,8.5,79,0.00,,,0.00,WUHU21623XXSP,2013-05-12 07:48:00,
2013-05-12 03:53:00,36.3,30.4,30.33,SSE,157,0.0,8.5,79,0.00,,,0.00,WUHU21623XXSP,2013-05-12 07:53:00,
2013-05-12 03:58:00,36.3,30.4,30.33,SSW,202,0.0,0.0,79,0.00,,,0.00,WUHU21623XXSP,2013-05-12 07:58:00,
2013-05-12 04:03:00,36.3,30.4,30.33,SSW,202,0.0,0.0,79,0.00,,,0.00,WUHU21623XXSP,2013-05-12 08:03:00,
2013-05-12 04:08:00,36.1,30.2,30.33,North,0,3.1,3.1,78,0.00,,,0.00,WUHU21623XXSP,2013-05-12 08:08:00,
2013-05-12 04:13:00,36.1,29.9,30.32,South,180,0.0,3.1,78,0.00,,,0.00,WUHU21623XXSP,2013-05-12 08:13:00,
2013-05-12 04:18:00,36.1,29.9,30.33,SSW,202,0.0,0.0,78,0.00,,,0.00,WUHU21623XXSP,2013-05-12 08:18:00,
2013-05-12 04:23:00,36.1,29.9,30.33,NE,45,0.0,0.0,78,0.00,,,0.00,WUHU21623XXSP,2013-05-12 08:23:00,
2013-05-12 04:28:00,36.0,29.7,30.32,SSW,202,0.0,0.0,78,0.00,,,0.00,WUHU21623XXSP,2013-05-12 08:28:00,
2013-05-12 04:33:00,35.8,29.6,30.32,SE,135,0.0,0.0,78,0.00,,,0.00,WUHU21623XXSP,2013-05-12 08:33:00,
2013-05-12 04:38:00,35.8,29.6,30.33,SW,225,0.0,0.0,78,0.00,,,0.00,WUHU21623XXSP,2013-05-12 08:38:00,
2013-05-12 04:43:00,35.8,29.6,30.32,SSE,157,0.0,0.0,78,0.00,,,0.00,WUHU21623XXSP,2013-05-12 08:43:00,
2013-05-12 04:48:00,35.8,29.6,30.32,South,180,0.0,2.2,78,0.00,,,0.00,WUHU21623XXSP,2013-05-12 08:48:00,
2013-05-12 04:53:00,35.8,29.6,30.32,ESE,112,0.0,2.2,78,0.00,,,0.00,WUHU21623XXSP,2013-05-12 08:53:00,
2013-05-12 04:58:00,35.8,29.9,30.33,NNE,22,0.0,0.0,79,0.00,,,0.00,WUHU21623XXSP,2013-05-12 08:58:00,
2013-05-12 05:03:00,35.8,29.9,30.33,NNE,22,0.0,0.0,79,0.00,,,0.00,WUHU21623XXSP,2013-05-12 09:03:00,
2013-05-12 05:08:00,35.8,29.9,30.33,East,90,0.0,0.0,79,0.00,,,0.00,WUHU21623XXSP,2013-05-12 09:08:00,
2013-05-12 05:13:00,35.8,29.9,30.33,North,0,3.8,3.8,79,0.00,,,0.00,WUHU21623XXSP,2013-05-12 09:13:00,
2013-05-12 05:18:00,35.8,29.9,30.33,NE,45,1.8,3.8,79,0.00,,,0.00,WUHU21623XXSP,2013-05-12 09:18:00,
2013-05-12 05:23:00,35.8,30.2,30.33,SSW,202,2.0,2.0,80,0.00,,,0.00,WUHU21623XXSP,2013-05-12 09:23:00,
2013-05-12 05:28:00,35.6,30.0,30.33,North,0,0.0,2.0,80,0.00,,,0.00,WUHU21623XXSP,2013-05-12 09:28:00,
2013-05-12 05:33:00,35.4,29.8,30.33,ENE,67,0.0,0.0,80,0.00,,,0.00,WUHU21623XXSP,2013-05-12 09:33:00,
2013-05-12 05:38:00,35.4,29.8,30.33,ESE,112,3.1,3.1,80,0.00,,,0.00,WUHU21623XXSP,2013-05-12 09:38:00,
2013-05-12 05:43:00,35.4,29.8,30.33,NE,45,0.0,3.1,80,0.00,,,0.00,WUHU21623XXSP,2013-05-12 09:43:00,
2013-05-12 05:48:00,35.4,29.8,30.33,SW,225,0.0,0.0,80,0.00,,,0.00,WUHU21623XXSP,2013-05-12 09:48:00,
2013-05-12 05:53:00,35.8,30.5,30.33,SSW,202,0.0,0.0,81,0.00,,,0.00,WUHU21623XXSP,2013-05-12 09:53:00,
2013-05-12 05:58:00,35.8,30.5,30.33,East,90,0.0,0.0,81,0.00,,,0.00,WUHU21623XXSP,2013-05-12 09:58:00,
2013-05-12 06:03:00,36.0,30.7,30.33,NE,45,0.0,0.0,81,0.00,,,0.00,WUHU21623XXSP,2013-05-12 10:03:00,
2013-05-12 06:08:00,36.0,30.7,30.33,SE,135,0.0,5.4,81,0.00,,,0.00,WUHU21623XXSP,2013-05-12 10:08:00,
2013-05-12 06:13:00,36.1,30.8,30.33,SE,135,0.0,5.4,81,0.00,,,0.00,WUHU21623XXSP,2013-05-12 10:13:00,
2013-05-12 06:18:00,36.1,30.6,30.33,SE,135,0.0,0.0,80,0.00,,,0.00,WUHU21623XXSP,2013-05-12 10:18:00,
2013-05-12 06:23:00,36.1,30.6,30.33,NE,45,0.0,5.1,80,0.00,,,0.00,WUHU21623XXSP,2013-05-12 10:23:00,
2013-05-12 06:28:00,36.1,30.6,30.33,ENE,67,0.0,5.1,80,0.00,,,0.00,WUHU21623XXSP,2013-05-12 10:28:00,
2013-05-12 06:34:00,36.1,30.6,30.33,SSE,157,5.1,5.1,80,0.00,,,0.00,WUHU21623XXSP,2013-05-12 10:34:00,
2013-05-12 06:39:00,36.1,30.6,30.33,East,90,0.0,5.1,80,0.00,,,0.00,WUHU21623XXSP,2013-05-12 10:39:00,
2013-05-12 06:44:00,36.1,30.2,30.33,WSW,247,0.0,0.0,79,0.00,,,0.00,WUHU21623XXSP,2013-05-12 10:44:00,
2013-05-12 06:49:00,36.0,30.4,30.33,East,90,0.0,0.0,80,0.00,,,0.00,WUHU21623XXSP,2013-05-12 10:49:00,
2013-05-12 06:54:00,36.0,30.4,30.33,SSE,157,0.0,0.0,80,0.00,,,0.00,WUHU21623XXSP,2013-05-12 10:54:00,
2013-05-12 06:59:00,36.1,30.6,30.34,ESE,112,0.0,2.0,80,0.00,,,0.00,WUHU21623XXSP,2013-05-12 10:59:00,
2013-05-12 07:04:00,36.0,30.4,30.34,South,180,5.1,5.1,80,0.00,,,0.00,WUHU21623XXSP,2013-05-12 11:04:00,
2013-05-12 07:09:00,36.0,30.4,30.33,SSE,157,7.4,7.4,80,0.00,,,0.00,WUHU21623XXSP,2013-05-12 11:09:00,
2013-05-12 07:14:00,36.0,30.4,30.34,SW,225,4.9,7.4,80,0.00,,,0.00,WUHU21623XXSP,2013-05-12 11:14:00,
2013-05-12 07:19:00,36.0,30.4,30.34,ESE,112,0.0,4.9,80,0.00,,,0.00,WUHU21623XXSP,2013-05-12 11:19:00,
2013-05-12 07:24:00,36.3,30.7,30.34,SE,135,1.6,4.9,80,0.00,,,0.00,WUHU21623XXSP,2013-05-12 11:24:00,
2013-05-12 07:29:00,36.3,30.4,30.35,ESE,112,2.0,3.4,79,0.00,,,0.00,WUHU21623XXSP,2013-05-12 11:29:00,
2013-05-12 07:34:00,36.5,30.6,30.35,SSE,157,0.0,2.0,79,0.00,,,0.00,WUHU21623XXSP,2013-05-12 11:34:00,
2013-05-12 07:39:00,36.7,30.8,30.35,ENE,67,0.0,2.0,79,0.00,,,0.00,WUHU21623XXSP,2013-05-12 11:39:00,
2013-05-12 07:44:00,36.9,31.0,30.35,South,180,0.0,0.0,79,0.00,,,0.00,WUHU21623XXSP,2013-05-12 11:44:00,
2013-05-12 07:49:00,37.0,31.1,30.35,ENE,67,0.0,1.3,79,0.00,,,0.00,WUHU21623XXSP,2013-05-12 11:49:00,
2013-05-12 07:54:00,37.2,31.3,30.35,ENE,67,0.0,1.3,79,0.00,,,0.00,WUHU21623XXSP,2013-05-12 11:54:00,
2013-05-12 07:59:00,37.2,31.3,30.35,ENE,67,0.0,0.0,78,0.00,,,0.00,WUHU21623XXSP,2013-05-12 11:59:00,
2013-05-12 08:04:00,37.6,31.3,30.36,East,90,0.0,0.0,78,0.00,,,0.00,WUHU21623XXSP,2013-05-12 12:04:00,
2013-05-12 08:09:00,37.8,31.5,30.35,East,90,0.0,2.5,78,0.00,,,0.00,WUHU21623XXSP,2013-05-12 12:09:00,
2013-05-12 08:14:00,37.9,31.4,30.35,East,90,1.8,2.5,77,0.00,,,0.00,WUHU21623XXSP,2013-05-12 12:14:00,
2013-05-12 08:19:00,38.3,31.7,30.36,West,270,0.0,1.8,77,0.00,,,0.00,WUHU21623XXSP,2013-05-12 12:19:00,
2013-05-12 08:24:00,38.8,31.9,30.36,South,180,0.0,1.6,77,0.00,,,0.00,WUHU21623XXSP,2013-05-12 12:24:00,
2013-05-12 08:29:00,39.0,32.4,30.35,NE,45,0.7,0.7,77,0.00,,,0.00,WUHU21623XXSP,2013-05-12 12:29:00,
2013-05-12 08:34:00,39.0,32.1,30.36,ESE,112,0.0,0.7,76,0.00,,,0.00,WUHU21623XXSP,2013-05-12 12:34:00,
2013-05-12 08:39:00,39.4,32.4,30.37,East,90,2.0,2.0,76,0.00,,,0.00,WUHU21623XXSP,2013-05-12 12:39:00,
2013-05-12 08:44:00,39.6,32.3,30.37,WSW,247,0.0,2.0,75,0.00,,,0.00,WUHU21623XXSP,2013-05-12 12:44:00,
2013-05-12 08:49:00,39.7,32.4,30.36,ESE,112,0.0,2.0,75,0.00,,,0.00,WUHU21623XXSP,2013-05-12 12:49:00,
2013-05-12 08:54:00,40.1,32.4,30.37,WSW,247,0.0,3.1,74,0.00,,,0.00,WUHU21623XXSP,2013-05-12 12:54:00,
2013-05-12 08:59:00,40.3,32.3,30.38,NE,45,7.4,7.4,73,0.00,,,0.00,WUHU21623XXSP,2013-05-12 12:59:00,
2013-05-12 09:04:00,40.5,32.4,30.38,ESE,112,2.2,7.4,73,0.00,,,0.00,WUHU21623XXSP,2013-05-12 13:04:00,
2013-05-12 09:09:00,40.6,32.6,30.38,WSW,247,0.0,2.2,73,0.00,,,0.00,WUHU21623XXSP,2013-05-12 13:09:00,
2013-05-12 09:14:00,40.8,32.8,30.37,WSW,247,1.6,1.6,73,0.00,,,0.00,WUHU21623XXSP,2013-05-12 13:14:00,
2013-05-12 09:19:00,41.0,33.0,30.38,ESE,112,0.0,2.0,73,0.00,,,0.00,WUHU21623XXSP,2013-05-12 13:19:00,
2013-05-12 09:24:00,41.2,33.2,30.38,South,180,2.2,2.2,72,0.00,,,0.00,WUHU21623XXSP,2013-05-12 13:24:00,
2013-05-12 09:29:00,41.2,32.5,30.38,SW,225,4.7,4.7,71,0.00,,,0.00,WUHU21623XXSP,2013-05-12 13:29:00,
2013-05-12 09:35:00,41.0,32.3,30.38,NNE,22,2.5,5.4,71,0.00,,,0.00,WUHU21623XXSP,2013-05-12 13:35:00,
2013-05-12 09:40:00,41.2,32.5,30.39,South,180,0.0,5.4,71,0.00,,,0.00,WUHU21623XXSP,2013-05-12 13:40:00,
2013-05-12 09:45:00,41.7,32.7,30.38,NNE,22,0.0,5.1,70,0.00,,,0.00,WUHU21623XXSP,2013-05-12 13:45:00,
2013-05-12 09:50:00,42.1,33.1,30.38,ESE,112,1.6,1.6,70,0.00,,,0.00,WUHU21623XXSP,2013-05-12 13:50:00,
2013-05-12 09:55:00,42.6,33.2,30.38,South,180,0.0,1.6,69,0.00,,,0.00,WUHU21623XXSP,2013-05-12 13:55:00,
2013-05-12 10:00:00,42.6,32.4,30.38,ENE,67,3.1,4.0,67,0.00,,,0.00,WUHU21623XXSP,2013-05-12 14:00:00,
2013-05-12 10:05:00,43.0,32.8,30.38,SE,135,2.5,4.9,67,0.00,,,0.00,WUHU21623XXSP,2013-05-12 14:05:00,
2013-05-12 10:10:00,43.3,33.1,30.38,SSE,157,0.0,4.9,67,0.00,,,0.00,WUHU21623XXSP,2013-05-12 14:10:00,
2013-05-12 10:15:00,43.2,32.9,30.39,SSW,202,3.6,3.6,67,0.00,,,0.00,WUHU21623XXSP,2013-05-12 14:15:00,
2013-05-12 10:20:00,42.6,32.8,30.39,SE,135,2.2,3.6,68,0.00,,,0.00,WUHU21623XXSP,2013-05-12 14:20:00,
2013-05-12 10:25:00,42.4,33.0,30.39,South,180,0.0,2.2,69,0.00,,,0.00,WUHU21623XXSP,2013-05-12 14:25:00,
2013-05-12 10:30:00,42.4,33.0,30.39,East,90,0.0,0.0,69,0.00,,,0.00,WUHU21623XXSP,2013-05-12 14:30:00,
2013-05-12 10:35:00,42.6,33.2,30.39,East,90,2.5,2.5,69,0.00,,,0.00,WUHU21623XXSP,2013-05-12 14:35:00,
2013-05-12 10:40:00,43.0,33.6,30.39,NE,45,0.0,2.5,69,0.00,,,0.00,WUHU21623XXSP,2013-05-12 14:40:00,
2013-05-12 10:45:00,43.5,34.1,30.40,SE,135,0.0,2.5,69,0.00,,,0.00,WUHU21623XXSP,2013-05-12 14:45:00,
2013-05-12 10:50:00,43.5,34.4,30.40,SE,135,7.6,7.6,70,0.00,,,0.00,WUHU21623XXSP,2013-05-12 14:50:00,
2013-05-12 10:55:00,43.5,34.1,30.39,ESE,112,9.6,9.6,69,0.00,,,0.00,WUHU21623XXSP,2013-05-12 14:55:00,
2013-05-12 11:00:00,43.3,33.9,30.39,SE,135,1.8,9.6,69,0.00,,,0.00,WUHU21623XXSP,2013-05-12 15:00:00,
2013-05-12 11:05:00,43.3,33.5,30.39,ESE,112,0.0,9.6,68,0.00,,,0.00,WUHU21623XXSP,2013-05-12 15:05:00,
2013-05-12 11:10:00,43.3,33.9,30.39,SSE,157,3.8,3.8,69,0.00,,,0.00,WUHU21623XXSP,2013-05-12 15:10:00,
2013-05-12 11:15:00,43.5,33.3,30.39,ESE,112,2.2,3.8,67,0.00,,,0.00,WUHU21623XXSP,2013-05-12 15:15:00,
2013-05-12 11:21:00,43.5,33.3,30.40,ESE,112,0.0,3.4,67,0.00,,,0.00,WUHU21623XXSP,2013-05-12 15:21:00,
2013-05-12 11:26:00,43.5,32.9,30.40,SW,225,7.6,7.6,66,0.00,,,0.00,WUHU21623XXSP,2013-05-12 15:26:00,
2013-05-12 11:31:00,43.0,32.0,30.40,ENE,67,0.0,7.6,65,0.00,,,0.00,WUHU21623XXSP,2013-05-12 15:31:00,
2013-05-12 11:36:00,42.6,32.0,30.40,ESE,112,0.0,9.8,66,0.00,,,0.00,WUHU21623XXSP,2013-05-12 15:36:00,
2013-05-12 11:41:00,43.2,32.5,30.40,South,180,3.8,9.8,66,0.00,,,0.00,WUHU21623XXSP,2013-05-12 15:41:00,
2013-05-12 11:46:00,44.1,33.0,30.40,ESE,112,4.5,4.5,65,0.00,,,0.00,WUHU21623XXSP,2013-05-12 15:46:00,
2013-05-12 11:51:00,44.6,32.4,30.40,NE,45,8.3,8.3,62,0.00,,,0.00,WUHU21623XXSP,2013-05-12 15:51:00,
2013-05-12 11:56:00,45.1,32.5,30.41,SE,135,0.0,8.3,61,0.00,,,0.00,WUHU21623XXSP,2013-05-12 15:56:00,
2013-05-12 12:01:00,45.3,32.7,30.41,SSW,202,7.2,7.2,61,0.00,,,0.00,WUHU21623XXSP,2013-05-12 16:01:00,
2013-05-12 12:06:00,45.5,32.8,30.41,ESE,112,2.5,7.2,61,0.00,,,0.00,WUHU21623XXSP,2013-05-12 16:06:00,
2013-05-12 12:11:00,45.3,32.7,30.42,ESE,112,2.9,5.4,61,0.00,,,0.00,WUHU21623XXSP,2013-05-12 16:11:00,
2013-05-12 12:16:00,45.0,32.3,30.41,West,270,6.9,6.9,61,0.00,,,0.00,WUHU21623XXSP,2013-05-12 16:16:00,
2013-05-12 12:21:00,45.1,32.5,30.41,West,270,3.6,6.9,61,0.00,,,0.00,WUHU21623XXSP,2013-05-12 16:21:00,
2013-05-12 12:26:00,45.9,32.8,30.41,West,270,7.2,7.6,60,0.00,,,0.00,WUHU21623XXSP,2013-05-12 16:26:00,
2013-05-12 12:31:00,45.7,31.7,30.41,East,90,3.1,7.6,58,0.00,,,0.00,WUHU21623XXSP,2013-05-12 16:31:00,
2013-05-12 12:36:00,45.5,32.0,30.42,ESE,112,0.9,3.4,59,0.00,,,0.00,WUHU21623XXSP,2013-05-12 16:36:00,
2013-05-12 12:41:00,45.1,31.7,30.43,SE,135,9.8,9.8,59,0.00,,,0.00,WUHU21623XXSP,2013-05-12 16:41:00,
2013-05-12 12:46:00,44.8,31.4,30.42,SSE,157,2.7,9.8,59,0.00,,,0.00,WUHU21623XXSP,2013-05-12 16:46:00,
2013-05-12 12:51:00,44.8,31.4,30.43,East,90,3.1,6.0,59,0.00,,,0.00,WUHU21623XXSP,2013-05-12 16:51:00,
2013-05-12 12:56:00,45.1,31.2,30.43,ENE,67,0.0,11.6,58,0.00,,,0.00,WUHU21623XXSP,2013-05-12 16:56:00,
2013-05-12 13:01:00,45.0,31.1,30.43,SW,225,0.0,11.6,58,0.00,,,0.00,WUHU21623XXSP,2013-05-12 17:01:00,
2013-05-12 13:06:00,45.5,31.4,30.43,WSW,247,9.4,9.4,59,0.00,,,0.00,WUHU21623XXSP,2013-05-12 17:06:00,
2013-05-12 13:11:00,46.0,31.6,30.43,WSW,247,1.8,9.4,57,0.00,,,0.00,WUHU21623XXSP,2013-05-12 17:11:00,
2013-05-12 13:16:00,46.2,31.7,30.43,East,90,0.0,7.2,57,0.00,,,0.00,WUHU21623XXSP,2013-05-12 17:16:00,
2013-05-12 13:21:00,46.2,30.8,30.43,ENE,67,2.5,4.9,55,0.00,,,0.00,WUHU21623XXSP,2013-05-12 17:21:00,
2013-05-12 13:26:00,46.2,30.8,30.44,NNE,22,6.0,6.0,55,0.00,,,0.00,WUHU21623XXSP,2013-05-12 17:26:00,
2013-05-12 13:31:00,45.7,30.8,30.44,SE,135,1.3,6.0,56,0.00,,,0.00,WUHU21623XXSP,2013-05-12 17:31:00,
2013-05-12 13:36:00,45.1,29.9,30.44,ESE,112,0.0,6.3,55,0.00,,,0.00,WUHU21623XXSP,2013-05-12 17:36:00,
2013-05-12 13:41:00,44.8,30.0,30.45,East,90,1.6,6.3,56,0.00,,,0.00,WUHU21623XXSP,2013-05-12 17:41:00,
2013-05-12 13:46:00,44.4,30.1,30.44,SSE,157,0.0,1.6,57,0.00,,,0.00,WUHU21623XXSP,2013-05-12 17:46:00,
2013-05-12 13:51:00,44.2,29.5,30.45,SSE,157,5.4,5.4,56,0.00,,,0.00,WUHU21623XXSP,2013-05-12 17:51:00,
2013-05-12 13:56:00,44.2,29.5,30.46,East,90,5.1,5.4,56,0.00,,,0.00,WUHU21623XXSP,2013-05-12 17:56:00,
2013-05-12 14:01:00,43.7,29.0,30.45,SSE,157,1.1,5.1,56,0.00,,,0.00,WUHU21623XXSP,2013-05-12 18:01:00,
2013-05-12 14:06:00,43.2,28.9,30.45,ESE,112,0.0,2.9,57,0.00,,,0.00,WUHU21623XXSP,2013-05-12 18:06:00,
2013-05-12 14:11:00,42.8,28.5,30.46,ENE,67,4.9,4.9,57,0.00,,,0.00,WUHU21623XXSP,2013-05-12 18:11:00,
2013-05-12 14:16:00,42.6,28.8,30.46,NE,45,2.9,6.3,58,0.00,,,0.00,WUHU21623XXSP,2013-05-12 18:16:00,
2013-05-12 14:21:00,42.3,28.5,30.46,WNW,292,6.0,6.3,58,0.00,,,0.00,WUHU21623XXSP,2013-05-12 18:21:00,
2013-05-12 14:26:00,42.1,28.3,30.46,South,180,9.4,9.4,58,0.00,,,0.00,WUHU21623XXSP,2013-05-12 18:26:00,
2013-05-12 14:31:00,41.9,28.6,30.46,SSE,157,0.0,9.4,59,0.00,,,0.00,WUHU21623XXSP,2013-05-12 18:31:00,
2013-05-12 14:36:00,41.5,28.3,30.46,SE,135,0.0,7.6,59,0.00,,,0.00,WUHU21623XXSP,2013-05-12 18:36:00,
2013-05-12 14:41:00,41.5,28.1,30.46,SSW,202,0.0,7.6,60,0.00,,,0.00,WUHU21623XXSP,2013-05-12 18:41:00,
2013-05-12 14:47:00,41.2,28.4,30.46,East,90,4.3,7.6,60,0.00,,,0.00,WUHU21623XXSP,2013-05-12 18:47:00,
2013-05-12 14:52:00,40.8,28.0,30.47,East,90,0.0,7.6,60,0.00,,,0.00,WUHU21623XXSP,2013-05-12 18:52:00,
2013-05-12 14:57:00,40.8,28.0,30.47,ENE,67,0.0,4.0,60,0.00,,,0.00,WUHU21623XXSP,2013-05-12 18:57:00,
2013-05-12 15:02:00,40.8,28.0,30.47,West,270,6.7,7.4,60,0.00,,,0.00,WUHU21623XXSP,2013-05-12 19:02:00,
2013-05-12 15:07:00,40.8,28.4,30.48,ESE,112,0.0,7.4,61,0.00,,,0.00,WUHU21623XXSP,2013-05-12 19:07:00,
2013-05-12 15:12:00,40.8,28.0,30.47,SSE,157,0.0,1.3,60,0.00,,,0.00,WUHU21623XXSP,2013-05-12 19:12:00,
2013-05-12 15:17:00,41.2,27.9,30.47,SE,135,3.4,3.4,59,0.00,,,0.00,WUHU21623XXSP,2013-05-12 19:17:00,
2013-05-12 15:22:00,41.0,27.8,30.47,South,180,6.7,6.7,59,0.00,,,0.00,WUHU21623XXSP,2013-05-12 19:22:00,
2013-05-12 15:27:00,41.0,27.8,30.47,SSW,202,0.0,6.7,59,0.00,,,0.00,WUHU21623XXSP,2013-05-12 19:27:00,
2013-05-12 15:32:00,40.8,27.8,30.48,NE,45,0.0,2.2,59,0.00,,,0.00,WUHU21623XXSP,2013-05-12 19:32:00,
2013-05-12 15:37:00,40.8,27.1,30.48,NNE,22,1.6,2.2,58,0.00,,,0.00,WUHU21623XXSP,2013-05-12 19:37:00,
2013-05-12 15:42:00,40.8,27.6,30.48,NW,315,0.0,1.6,59,0.00,,,0.00,WUHU21623XXSP,2013-05-12 19:42:00,
2013-05-12 15:47:00,41.5,28.3,30.47,SSE,157,0.0,2.9,59,0.00,,,0.00,WUHU21623XXSP,2013-05-12 19:47:00,
2013-05-12 15:52:00,41.5,27.8,30.47,ESE,112,0.0,2.9,58,0.00,,,0.00,WUHU21623XXSP,2013-05-12 19:52:00,
2013-05-12 15:57:00,41.7,28.0,30.48,SW,225,0.0,0.0,58,0.00,,,0.00,WUHU21623XXSP,2013-05-12 19:57:00,
2013-05-12 16:02:00,41.9,28.0,30.48,East,90,2.0,2.0,58,0.00,,,0.00,WUHU21623XXSP,2013-05-12 20:02:00,
2013-05-12 16:07:00,42.1,28.1,30.48,WSW,247,0.0,2.0,58,0.00,,,0.00,WUHU21623XXSP,2013-05-12 20:07:00,
2013-05-12 16:12:00,42.1,28.3,30.48,West,270,0.0,2.2,58,0.00,,,0.00,WUHU21623XXSP,2013-05-12 20:12:00,
2013-05-12 16:17:00,42.3,28.5,30.48,SE,135,1.3,3.1,58,0.00,,,0.00,WUHU21623XXSP,2013-05-12 20:17:00,
2013-05-12 16:22:00,42.1,27.9,30.48,SE,135,0.0,5.1,57,0.00,,,0.00,WUHU21623XXSP,2013-05-12 20:22:00,
2013-05-12 16:27:00,41.7,27.5,30.48,SE,135,0.0,5.1,57,0.00,,,0.00,WUHU21623XXSP,2013-05-12 20:27:00,
2013-05-12 16:32:00,41.5,27.8,30.48,NE,45,5.4,5.4,58,0.00,,,0.00,WUHU21623XXSP,2013-05-12 20:32:00,
2013-05-12 16:37:00,41.5,27.8,30.49,SSW,202,0.0,5.4,58,0.00,,,0.00,WUHU21623XXSP,2013-05-12 20:37:00,
2013-05-12 16:42:00,41.7,28.4,30.49,NE,45,4.7,4.7,59,0.00,,,0.00,WUHU21623XXSP,2013-05-12 20:42:00,
2013-05-12 16:47:00,41.9,28.1,30.49,NE,45,4.5,4.7,58,0.00,,,0.00,WUHU21623XXSP,2013-05-12 20:47:00,
2013-05-12 16:52:00,41.9,27.7,30.48,SW,225,2.2,4.5,57,0.00,,,0.00,WUHU21623XXSP,2013-05-12 20:52:00,
2013-05-12 16:57:00,41.7,27.5,30.49,West,270,2.0,4.5,57,0.00,,,0.00,WUHU21623XXSP,2013-05-12 20:57:00,
2013-05-12 17:02:00,41.7,27.5,30.49,East,90,0.0,3.1,57,0.00,,,0.00,WUHU21623XXSP,2013-05-12 21:02:00,
2013-05-12 17:07:00,41.5,27.4,30.49,SW,225,0.0,1.6,57,0.00,,,0.00,WUHU21623XXSP,2013-05-12 21:07:00,
2013-05-12 17:12:00,41.5,27.8,30.50,ENE,67,1.6,1.6,58,0.00,,,0.00,WUHU21623XXSP,2013-05-12 21:12:00,
2013-05-12 17:17:00,41.5,27.8,30.50,SSW,202,0.0,1.6,58,0.00,,,0.00,WUHU21623XXSP,2013-05-12 21:17:00,
2013-05-12 17:18:00,41.5,27.8,30.50,SE,135,0.0,1.6,58,0.00,,,0.00,WUHU21623XXSP,2013-05-12 21:18:00,
2013-05-12 17:25:00,41.5,27.8,30.51,SSE,157,1.6,1.8,58,0.00,,,0.00,WUHU21623XXSP,2013-05-12 21:25:00,
2013-05-12 17:29:00,41.4,27.2,30.50,SE,135,2.5,2.5,57,0.00,,,0.00,WUHU21623XXSP,2013-05-12 21:29:00,
2013-05-12 17:36:00,41.2,27.0,30.51,East,90,0.0,2.5,57,0.00,,,0.00,WUHU21623XXSP,2013-05-12 21:36:00,
2013-05-12 17:40:00,41.2,27.0,30.51,West,270,0.0,2.2,57,0.00,,,0.00,WUHU21623XXSP,2013-05-12 21:40:00,
2013-05-12 17:46:00,40.8,26.7,30.51,SSE,157,3.8,3.8,57,0.00,,,0.00,WUHU21623XXSP,2013-05-12 21:46:00,
2013-05-12 17:51:00,40.8,26.7,30.51,NNE,22,0.0,3.8,57,0.00,,,0.00,WUHU21623XXSP,2013-05-12 21:51:00,
2013-05-12 17:55:00,40.8,26.7,30.51,East,90,1.8,1.8,57,0.00,,,0.00,WUHU21623XXSP,2013-05-12 21:55:00,
2013-05-12 18:01:00,40.8,26.7,30.51,ENE,67,0.0,1.8,57,0.00,,,0.00,WUHU21623XXSP,2013-05-12 22:01:00,
2013-05-12 18:06:00,40.8,26.7,30.51,East,90,0.0,0.0,58,0.00,,,0.00,WUHU21623XXSP,2013-05-12 22:06:00,
2013-05-12 18:12:00,40.8,27.1,30.51,WSW,247,2.9,2.9,58,0.00,,,0.00,WUHU21623XXSP,2013-05-12 22:12:00,
2013-05-12 18:16:00,40.6,26.5,30.52,SW,225,3.8,3.8,57,0.00,,,0.00,WUHU21623XXSP,2013-05-12 22:16:00,
2013-05-12 18:20:00,40.5,26.8,30.51,ESE,112,0.0,3.8,58,0.00,,,0.00,WUHU21623XXSP,2013-05-12 22:20:00,
2013-05-12 18:27:00,40.1,26.4,30.52,ESE,112,0.0,2.2,58,0.00,,,0.00,WUHU21623XXSP,2013-05-12 22:27:00,
2013-05-12 18:31:00,39.9,26.3,30.52,North,0,0.0,1.3,58,0.00,,,0.00,WUHU21623XXSP,2013-05-12 22:31:00,
2013-05-12 18:38:00,39.9,26.3,30.52,SSW,202,1.6,1.6,58,0.00,,,0.00,WUHU21623XXSP,2013-05-12 22:38:00,
2013-05-12 18:42:00,39.9,26.3,30.53,South,180,7.2,7.2,58,0.00,,,0.00,WUHU21623XXSP,2013-05-12 22:42:00,
2013-05-12 18:46:00,39.9,26.3,30.53,WSW,247,0.0,7.2,58,0.00,,,0.00,WUHU21623XXSP,2013-05-12 22:46:00,
2013-05-12 18:53:00,39.9,26.3,30.53,ESE,112,3.6,7.2,58,0.00,,,0.00,WUHU21623XXSP,2013-05-12 22:53:00,
2013-05-12 18:57:00,39.9,26.3,30.53,North,0,0.0,3.6,58,0.00,,,0.00,WUHU21623XXSP,2013-05-12 22:57:00,
2013-05-12 19:03:00,39.9,26.3,30.53,North,0,4.5,4.5,58,0.00,,,0.00,WUHU21623XXSP,2013-05-12 23:03:00,
2013-05-12 19:08:00,39.7,25.6,30.53,ESE,112,0.0,4.5,57,0.00,,,0.00,WUHU21623XXSP,2013-05-12 23:08:00,
2013-05-12 19:12:00,39.7,25.6,30.53,ESE,112,2.9,3.8,57,0.00,,,0.00,WUHU21623XXSP,2013-05-12 23:12:00,
2013-05-12 19:18:00,39.6,25.5,30.53,West,270,2.2,2.9,57,0.00,,,0.00,WUHU21623XXSP,2013-05-12 23:18:00,
2013-05-12 19:23:00,39.6,25.9,30.53,WNW,292,0.0,2.2,58,0.00,,,0.00,WUHU21623XXSP,2013-05-12 23:23:00,
2013-05-12 19:29:00,39.6,25.9,30.53,SSE,157,0.0,0.0,58,0.00,,,0.00,WUHU21623XXSP,2013-05-12 23:29:00,
2013-05-12 19:33:00,39.6,25.9,30.54,NNE,22,0.0,0.0,58,0.00,,,0.00,WUHU21623XXSP,2013-05-12 23:33:00,
2013-05-12 19:38:00,39.6,25.9,30.54,West,270,0.0,0.0,58,0.00,,,0.00,WUHU21623XXSP,2013-05-12 23:38:00,
2013-05-12 19:44:00,39.6,25.9,30.54,West,270,3.8,3.8,58,0.00,,,0.00,WUHU21623XXSP,2013-05-12 23:44:00,
2013-05-12 19:48:00,39.4,25.7,30.54,SSE,157,7.4,7.4,58,0.00,,,0.00,WUHU21623XXSP,2013-05-12 23:48:00,
2013-05-12 19:55:00,39.4,25.7,30.54,East,90,0.0,7.4,58,0.00,,,0.00,WUHU21623XXSP,2013-05-12 23:55:00,
2013-05-12 19:59:00,39.4,25.7,30.54,East,90,0.0,3.6,58,0.00,,,0.00,WUHU21623XXSP,2013-05-12 23:59:00,
2013-05-12 20:10:00,39.0,25.4,30.54,East,90,0.0,10.5,58,0.00,,,0.00,WUHU21623XXSP,2013-05-13 00:10:00,
2013-05-12 20:15:00,39.0,25.8,30.54,West,270,0.0,10.5,59,0.00,,,0.00,WUHU21623XXSP,2013-05-13 00:15:00,
2013-05-12 20:20:00,39.0,25.8,30.54,WSW,247,0.0,2.9,59,0.00,,,0.00,WUHU21623XXSP,2013-05-13 00:20:00,
2013-05-12 20:25:00,39.0,25.8,30.55,SW,225,2.2,2.2,59,0.00,,,0.00,WUHU21623XXSP,2013-05-13 00:25:00,
2013-05-12 20:30:00,38.8,26.1,30.55,West,270,0.0,2.2,60,0.00,,,0.00,WUHU21623XXSP,2013-05-13 00:30:00,
2013-05-12 20:35:00,38.8,26.1,30.54,WNW,292,0.0,0.0,60,0.00,,,0.00,WUHU21623XXSP,2013-05-13 00:35:00,
2013-05-12 20:40:00,38.5,26.1,30.54,East,90,3.1,3.1,61,0.00,,,0.00,WUHU21623XXSP,2013-05-13 00:40:00,
2013-05-12 20:45:00,38.1,25.8,30.55,SW,225,0.0,3.1,61,0.00,,,0.00,WUHU21623XXSP,2013-05-13 00:45:00,
2013-05-12 20:50:00,37.9,25.7,30.55,ESE,112,0.0,1.3,61,0.00,,,0.00,WUHU21623XXSP,2013-05-13 00:50:00,
2013-05-12 20:55:00,37.8,25.9,30.55,WSW,247,0.0,1.3,62,0.00,,,0.00,WUHU21623XXSP,2013-05-13 00:55:00,
2013-05-12 21:00:00,37.4,25.6,30.55,NW,315,0.0,0.0,62,0.00,,,0.00,WUHU21623XXSP,2013-05-13 01:00:00,
2013-05-12 21:05:00,37.2,25.8,30.55,WSW,247,0.0,0.0,63,0.00,,,0.00,WUHU21623XXSP,2013-05-13 01:05:00,
2013-05-12 21:10:00,36.9,25.4,30.55,SSW,202,0.0,0.0,63,0.00,,,0.00,WUHU21623XXSP,2013-05-13 01:10:00,
2013-05-12 21:15:00,36.5,25.5,30.55,ESE,112,0.0,0.0,64,0.00,,,0.00,WUHU21623XXSP,2013-05-13 01:15:00,
2013-05-12 21:20:00,36.3,25.3,30.56,SE,135,0.0,0.0,64,0.00,,,0.00,WUHU21623XXSP,2013-05-13 01:20:00,
2013-05-12 21:25:00,36.1,25.1,30.55,ESE,112,0.0,0.0,64,0.00,,,0.00,WUHU21623XXSP,2013-05-13 01:25:00,
2013-05-12 21:30:00,36.0,24.9,30.55,SSE,157,0.0,0.0,64,0.00,,,0.00,WUHU21623XXSP,2013-05-13 01:30:00,
2013-05-12 21:35:00,35.8,24.8,30.56,ESE,112,0.0,0.0,64,0.00,,,0.00,WUHU21623XXSP,2013-05-13 01:35:00,
2013-05-12 21:40:00,35.4,24.8,30.56,SSW,202,0.0,0.0,65,0.00,,,0.00,WUHU21623XXSP,2013-05-13 01:40:00,
2013-05-12 21:45:00,35.4,24.8,30.56,SSE,157,0.0,0.0,65,0.00,,,0.00,WUHU21623XXSP,2013-05-13 01:45:00,
2013-05-12 21:50:00,35.2,24.6,30.56,SSW,202,0.0,0.0,66,0.00,,,0.00,WUHU21623XXSP,2013-05-13 01:50:00,
2013-05-12 21:55:00,34.9,24.6,30.56,SSW,202,0.0,0.0,66,0.00,,,0.00,WUHU21623XXSP,2013-05-13 01:55:00,
2013-05-12 22:00:00,34.5,24.3,30.56,SSW,202,0.0,0.0,66,0.00,,,0.00,WUHU21623XXSP,2013-05-13 02:00:00,
2013-05-12 22:05:00,34.5,24.3,30.56,SSW,202,0.0,0.0,66,0.00,,,0.00,WUHU21623XXSP,2013-05-13 02:05:00,
2013-05-12 22:10:00,34.3,24.4,30.56,NNW,337,0.0,0.0,67,0.00,,,0.00,WUHU21623XXSP,2013-05-13 02:10:00,
2013-05-12 22:15:00,34.2,24.3,30.57,SW,225,0.0,0.0,67,0.00,,,0.00,WUHU21623XXSP,2013-05-13 02:15:00,
2013-05-12 22:20:00,34.0,24.4,30.57,SSE,157,0.0,0.0,68,0.00,,,0.00,WUHU21623XXSP,2013-05-13 02:20:00,
2013-05-12 22:25:00,34.0,24.4,30.57,ESE,112,0.0,0.0,68,0.00,,,0.00,WUHU21623XXSP,2013-05-13 02:25:00,
2013-05-12 22:30:00,33.8,24.3,30.57,South,180,0.0,0.0,68,0.00,,,0.00,WUHU21623XXSP,2013-05-13 02:30:00,
2013-05-12 22:35:00,33.8,24.3,30.57,SE,135,0.0,0.0,68,0.00,,,0.00,WUHU21623XXSP,2013-05-13 02:35:00,
2013-05-12 22:40:00,33.8,24.6,30.57,ESE,112,0.0,0.0,69,0.00,,,0.00,WUHU21623XXSP,2013-05-13 02:40:00,
2013-05-12 22:45:00,33.8,24.6,30.57,ESE,112,0.0,0.0,69,0.00,,,0.00,WUHU21623XXSP,2013-05-13 02:45:00,
2013-05-12 22:50:00,33.6,24.5,30.58,East,90,0.0,0.0,69,0.00,,,0.00,WUHU21623XXSP,2013-05-13 02:50:00,
2013-05-12 22:55:00,33.6,24.5,30.58,SSW,202,0.0,0.0,69,0.00,,,0.00,WUHU21623XXSP,2013-05-13 02:55:00,
2013-05-12 23:00:00,33.4,24.3,30.58,SSW,202,0.0,0.0,69,0.00,,,0.00,WUHU21623XXSP,2013-05-13 03:00:00,
2013-05-12 23:06:00,33.4,24.7,30.58,NNE,22,0.0,0.0,70,0.00,,,0.00,WUHU21623XXSP,2013-05-13 03:06:00,
2013-05-12 23:11:00,33.3,24.5,30.58,East,90,0.0,0.0,70,0.00,,,0.00,WUHU21623XXSP,2013-05-13 03:11:00,
2013-05-12 23:16:00,33.1,24.3,30.58,East,90,0.0,0.0,70,0.00,,,0.00,WUHU21623XXSP,2013-05-13 03:16:00,
2013-05-12 23:21:00,32.9,24.2,30.58,East,90,0.0,0.0,70,0.00,,,0.00,WUHU21623XXSP,2013-05-13 03:21:00,
2013-05-12 23:26:00,32.7,24.3,30.58,East,90,0.0,0.0,71,0.00,,,0.00,WUHU21623XXSP,2013-05-13 03:26:00,
2013-05-12 23:31:00,32.5,24.2,30.59,ESE,112,0.0,0.0,71,0.00,,,0.00,WUHU21623XXSP,2013-05-13 03:31:00,
2013-05-12 23:36:00,32.4,24.0,30.58,ESE,112,0.0,0.0,71,0.00,,,0.00,WUHU21623XXSP,2013-05-13 03:36:00,
2013-05-12 23:41:00,32.2,23.8,30.58,ESE,112,0.0,0.0,71,0.00,,,0.00,WUHU21623XXSP,2013-05-13 03:41:00,
2013-05-12 23:46:00,32.2,24.2,30.58,SE,135,0.0,0.0,72,0.00,,,0.00,WUHU21623XXSP,2013-05-13 03:46:00,
2013-05-12 23:51:00,31.8,23.8,30.58,ESE,112,0.0,0.0,72,0.00,,,0.00,WUHU21623XXSP,2013-05-13 03:51:00,
2013-05-12 23:56:00,31.6,23.6,30.58,NNE,22,0.0,0.0,72,0.00,,,0.00,WUHU21623XXSP,2013-05-13 03:56:00,